Moline, IL
on Monday, March 18, 2013

Monday
Previous Day Next Day
Daily Summary
 ActualAverageRecord
Temperature
Mean Temperature °F 40°F  
Max Temperature 38°F 50°F 83°F (2012)
Min Temperature 21°F 30°F 0°F (1923)
Degree Days
Heating Degree Days 35 25  
Month to date heating degree days 631 518  
Since 1 July heating degree days 5264 5316  
Cooling Degree Days 0 0  
Month to date cooling degree days 0 0  
Year to date cooling degree days 0 0  
Moisture
Dew Point 26°F   
Average Humidity 77    
Maximum Humidity 92    
Minimum Humidity 62    
Precipitation
Precipitation 0.08 in 0.09 in 1.14 in (1933)
Month to date precipitation 2.30 1.61  
Year to date precipitation 7.70 4.70  
Snow
Snow 0.50 in 0.10 in in ()
Month to date snowfall 6.2 2.7  
Since 1 July snowfall 30.1 29.4  
Snow Depth 0.00 in   
Wind
Wind Speed 15 mph   
Max Wind Speed 32 mph   
Max Gust Speed 45 mph   
Visibility 6 miles   
Events Rain , Snow   

Key: T is trace of precipitation, MM is missing value
Source: NWS Daily Summary
Time(CDT)TemperatureDew PointHumidity Pressure Visibility Wind DirectionWind SpeedGust SpeedPrecipitationEvents Conditions
12:52 AM 33.1°F 25.0°F 72% 29.91 in 10.0 miles East 11.5 mph - N/A   Overcast
1:29 AM 32.0°F 24.8°F 75% 29.86 in 7.0 miles East 11.5 mph - 0.00 in Snow Light Snow
1:38 AM 32.0°F 26.6°F 80% 29.85 in 7.0 miles East 10.4 mph - 0.00 in   Overcast
1:52 AM 32.0°F 26.1°F 79% 29.88 in 3.0 miles East 15.0 mph - 0.00 in Snow Light Snow
2:52 AM 32.0°F 27.0°F 82% 29.85 in 9.0 miles East 11.5 mph - 0.00 in   Overcast
3:52 AM 32.0°F 27.0°F 82% 29.81 in 8.0 miles East 12.7 mph - N/A   Overcast
4:52 AM 30.9°F 28.0°F 89% 29.79 in 6.0 miles East 11.5 mph - N/A   Overcast
5:18 AM 30.2°F 28.4°F 93% 29.76 in 5.0 miles East 11.5 mph - 0.01 in Rain Light Freezing Rain
5:52 AM 30.9°F 28.0°F 89% 29.76 in 5.0 miles East 12.7 mph - 0.01 in Rain Light Freezing Rain
6:09 AM 30.2°F 28.4°F 93% 29.74 in 6.0 miles East 10.4 mph - 0.00 in   Overcast
6:52 AM 30.9°F 28.9°F 92% 29.75 in 5.0 miles East 8.1 mph - 0.00 in   Overcast
7:52 AM 30.9°F 28.9°F 92% 29.75 in 4.0 miles East 4.6 mph - 0.01 in Snow Light Snow
8:25 AM 30.2°F 28.4°F 93% 29.73 in 1.5 miles East 4.6 mph - 0.00 in Snow Light Snow
8:52 AM 30.9°F 28.9°F 92% 29.75 in 1.0 miles Calm Calm - 0.01 in Snow Light Snow
9:05 AM 30.2°F 28.4°F 93% 29.72 in 0.8 miles Calm Calm - 0.01 in Snow Light Snow
9:22 AM 30.2°F 28.4°F 93% 29.72 in 0.8 miles Calm Calm - 0.02 in Snow Light Snow
9:45 AM 30.2°F 28.4°F 93% 29.71 in 0.8 miles Calm Calm - 0.02 in Snow Light Snow
9:52 AM 32.0°F 30.0°F 92% 29.73 in 0.8 miles Calm Calm - 0.02 in Snow Light Snow
10:29 AM 32.0°F 30.2°F 93% 29.70 in 1.8 miles Calm Calm - 0.01 in Snow Light Snow
10:40 AM 33.8°F 30.2°F 87% 29.70 in 2.0 miles South 4.6 mph - 0.01 in Snow Light Snow
10:52 AM 32.0°F 28.9°F 88% 29.73 in 2.5 miles SSW 4.6 mph - 0.01 in Snow Light Snow
11:15 AM 33.8°F 30.2°F 87% 29.70 in 1.0 miles WSW 5.8 mph - 0.00 in Snow Light Snow
11:52 AM 33.1°F 30.9°F 92% 29.71 in 1.5 miles SW 5.8 mph - 0.01 in Snow Light Snow
11:54 AM 33.8°F 30.2°F 87% 29.69 in 1.2 miles SW 5.8 mph - 0.00 in Snow Light Snow
12:23 PM 33.8°F 32.0°F 93% 29.68 in 3.0 miles WSW 9.2 mph - 0.01 in   Overcast
12:52 PM 35.1°F 32.0°F 89% 29.70 in 5.0 miles WSW 10.4 mph - 0.01 in   Overcast
1:52 PM 36.0°F 32.0°F 86% 29.70 in 7.0 miles West 18.4 mph - N/A   Overcast
2:36 PM 37.4°F 32.0°F 81% 29.67 in 9.0 miles West 23.0 mph 32.2 mph N/A   Overcast
2:52 PM 36.0°F 30.0°F 79% 29.69 in 10.0 miles West 31.1 mph 38.0 mph N/A   Overcast
3:14 PM 33.8°F 28.4°F 81% 29.69 in 9.0 miles WNW 26.5 mph 36.8 mph N/A   Overcast
3:42 PM 33.8°F 28.4°F 81% 29.70 in 10.0 miles West 23.0 mph 31.1 mph N/A   Overcast
3:52 PM 33.1°F 26.1°F 75% 29.73 in 10.0 miles WNW 27.6 mph 36.8 mph N/A   Overcast
4:52 PM 30.0°F 21.0°F 69% 29.77 in 9.0 miles West 29.9 mph 39.1 mph N/A   Overcast
5:52 PM 27.0°F 19.9°F 75% 29.81 in 4.0 miles West 19.6 mph 32.2 mph 0.00 in Snow Light Snow
6:09 PM 26.6°F 17.6°F 69% 29.79 in 9.0 miles West 19.6 mph 31.1 mph 0.00 in   Overcast
6:52 PM 26.1°F 16.0°F 66% 29.84 in 10.0 miles West 27.6 mph 36.8 mph 0.00 in   Overcast
7:48 PM 24.8°F 17.6°F 74% 29.86 in 4.0 miles WNW 24.2 mph 33.4 mph 0.00 in Snow Light Snow
7:52 PM 24.1°F 17.1°F 75% 29.88 in 4.0 miles WNW 24.2 mph 33.4 mph 0.00 in Snow Light Snow
8:18 PM 24.8°F 17.6°F 74% 29.87 in 3.0 miles West 23.0 mph 31.1 mph 0.00 in Snow Light Snow
8:41 PM 23.0°F 15.8°F 74% 29.88 in 7.0 miles WNW 21.9 mph 28.8 mph 0.00 in Snow Light Snow
8:52 PM 24.1°F 14.0°F 65% 29.90 in 10.0 miles West 19.6 mph 31.1 mph 0.00 in   Overcast
9:52 PM 24.1°F 14.0°F 65% 29.91 in 9.0 miles West 24.2 mph 33.4 mph 0.00 in   Overcast
10:52 PM 23.0°F 12.9°F 65% 29.93 in 10.0 miles West 16.1 mph 32.2 mph 0.00 in   Overcast
Astronomy
Sunrise:07:08 AM (CDT) Moon Rise:11:04 AM (CDT)3/18
Sunset:07:12 PM (CDT) Moon Set:01:15 AM (CDT)3/18
Moon Phase
Mar. 18 Mar. 19 Mar. 27 Apr. 03 Apr. 10

Copyright © 2015 The Weather Underground, Inc.















  Today is Monday, Nov. 17, the 321st day of 2014. There are 44 days left in the year.

1864 -- 150 years ago: The ferry landing has been moved a little downstream because of the increase of sandbars above and opposite the old landing place.
1889 -- 125 years ago: Ben Eden purchased the Union Meat Market at 207 20th St.
1914 -- 100 years ago: Washington dispatches declared the bad effects of war upon trade had ended, a restoration of credit balance with Europe relieving the situation.
1939 -- 75 years ago: The maintenance foreman on the Iowa Illinois Memorial Bridge between Moline and Bettendorf lost his life when he slipped and fell into the Mississippi River.
1964 -- 50 years ago: The Black Hawk College Board of Education last night formally expressed appreciation for a proposed gift of 44 acres of land for a building site but could not take any other action until after a Nov. 24 stockholders meeting of the donor company.
1989 -- 25 years ago: A Rock Island County committee has approved a jail inmate phone service that could bring the county an additional $30,000 to $40,000 a year.